sat.trackr.live / text

‹ back to catalog

IONOSFERA-M 2

NORAD 61736 · 2024-199B

PAYLOAD ACTIVE UNKNOWN

§ Identity

Operator
Country
CIS
Launch date
2024-11-04
Launch site
VOSTO
Launch vehicle
Mass (kg)
RCS (m²)

Purposes: earth_obs

External: N2YO · Heavens-Above · Gunter

§ Orbital elements

Epoch: 2026-05-25T03:52:07.807008Z

Period
101.21 min
Inclination
98.7203°
Eccentricity
0.0001806
Mean motion
14.22752613 rev/d
Perigee alt
814.8 km
Apogee alt
817.4 km
Semi-major
7,194.2 km
B*
4.0258e-5
RAAN
18.4840°
Arg perigee
62.3121°
Mean anomaly
297.8240°
Rev number
12,755

§ Raw data

IONOSFERA-M 21 61736U 24199B   26145.16120147  .00000046  00000+0  40258-4 0  99902 61736  98.7203  18.4840 0001806  62.3121 297.8240 14.22752613127554

JSON: /api/v1/satellites/61736 · /tle

For live sub-satellite position, see the globe view (requires WebGL).

§ Visibility from observer

Set your observer location to see the next 7 days of passes ≥ 10°. The values pass through the URL so the page stays shareable.

No JS? Fill the form by hand. The geolocation button needs JavaScript.

§ Radio — SatNOGS DB

ModeDescriptionDownlinkUplink
CW MAYAK (150 MHz) 149.970 MHz
CW MAYAK (400MHz) 399.919 MHz

2 transmitters · refreshed weekly from db.satnogs.org